Weather History for KTVL - September, 2013

Change the Weather History Date:

Thursday, September 12, 2013

  Actual Average Record
Temperature  
Mean Temperature 61 °F 55 °F  
Max Temperature 79 °F 75 °F 88 °F (1990)
Min Temperature 43 °F 35 °F 22 °F (1972)
Degree Days  
Heating Degree Days 4 10  
Month to date heating degree days 32 105  
Since 1 July heating degree days 208 401  
Cooling Degree Days 0 0  
Month to date cooling degree days 4 0  
Year to date cooling degree days 102 30  
Growing Degree Days 12 (Base 50)    
Moisture  
Dew Point 43 °F    
Average Humidity 56    
Maximum Humidity 89    
Minimum Humidity 23    
Precipitation  
Precipitation 0.32 in - 0.32 in (2013)
Month to date precipitation 0.32  
Year to date precipitation 6.76  
Sea Level Pressure  
Sea Level Pressure 30.05 in    
Wind  
Wind Speed 3 mph (NE)    
Max Wind Speed 18 mph    
Max Gust Speed 25 mph    
Visibility 8 miles    
Events Fog , Rain    
T = Trace of Precipitation, MM = Missing Value Source: NWS Daily Summary

Daily Weather History Graph

Daily Weather History Graph

Search for Another Location

Airport or City:

Trip Planner

Search our weather history database for the weather conditions in past years. The results will help you decide how hot, cold, wet, or windy it might be!

Date:

Astronomy

Sep. 12, 2013 Rise Set
Actual Time 6:39 AM PDT 7:12 PM PDT
Civil Twilight 6:12 AM PDT 7:39 PM PDT
Nautical Twilight 5:40 AM PDT 8:10 PM PDT
Astronomical Twilight 5:08 AM PDT 8:43 PM PDT
Moon 2:07 PM PDT (9/12) No Moon Set
Length of Visible Light 13h 27m
Length of Day
12h 33m
Waxing Crescent, 51% of the Moon is Illuminated
Sep 12
Waxing Crescent
Sep 19
Full
Sep 26
Last Quarter
Oct 4
New
Oct 11
First Quarter

Hourly Weather History & Observations

Time (PDT) Temp. Dew Point Humidity Pressure Visibility Wind Dir Wind Speed Gust Speed Precip Events Conditions
12:53 AM 54.0 °F 35.1 °F 49% 30.01 in 10.0 mi SSW 3.5 mph - N/A   Overcast
1:53 AM 53.1 °F 35.1 °F 50% 30.00 in 10.0 mi Calm Calm - N/A   Partly Cloudy
2:53 AM 50.0 °F 34.0 °F 54% 30.00 in 10.0 mi Calm Calm - N/A   Partly Cloudy
3:53 AM 48.0 °F 35.1 °F 61% 30.01 in 10.0 mi Calm Calm - N/A   Clear
4:53 AM 46.0 °F 35.1 °F 66% 30.01 in 10.0 mi Calm Calm - N/A   Clear
5:53 AM 45.0 °F 34.0 °F 65% 30.02 in 10.0 mi Calm Calm - N/A   Clear
6:53 AM 44.1 °F 34.0 °F 68% 30.05 in 10.0 mi Calm Calm - N/A   Clear
7:53 AM 48.9 °F 37.0 °F 64% 30.06 in 10.0 mi Calm Calm - N/A   Clear
8:53 AM 62.1 °F 39.0 °F 43% 30.03 in 10.0 mi SSW 3.5 mph - N/A   Clear
9:53 AM 71.1 °F 36.0 °F 28% 30.01 in 10.0 mi NE 3.5 mph - N/A   Clear
10:53 AM 72.0 °F 36.0 °F 27% 30.02 in 10.0 mi NNE 5.8 mph - N/A   Scattered Clouds
11:53 AM 75.0 °F 39.0 °F 27% 30.01 in 10.0 mi NNE 8.1 mph - N/A   Clear
12:53 PM 77.0 °F 39.9 °F 26% 29.98 in 10.0 mi Variable 3.5 mph - N/A   Partly Cloudy
1:53 PM 75.9 °F 41.0 °F 29% 29.98 in 10.0 mi Variable 4.6 mph - N/A   Overcast
2:53 PM 75.0 °F 42.1 °F 31% 29.98 in 10.0 mi NNE 6.9 mph - N/A   Overcast
3:53 PM 78.1 °F 39.9 °F 25% 29.96 in 10.0 mi Variable 3.5 mph - N/A   Clear
4:53 PM 79.0 °F 37.9 °F 23% 29.95 in 10.0 mi North 4.6 mph - N/A   Partly Cloudy
5:53 PM 75.0 °F 39.0 °F 27% 29.98 in 10.0 mi NNE 8.1 mph - N/A   Overcast
6:53 PM 72.0 °F 44.1 °F 37% 30.00 in 10.0 mi Variable 4.6 mph - N/A   Overcast
7:44 PM 59.0 °F 51.8 °F 77% 30.20 in 2.5 mi North 8.1 mph 17.3 mph 0.07 in Rain Heavy Rain
7:53 PM 57.9 °F 54.0 °F 87% 30.09 in 2.0 mi Variable 4.6 mph - 0.12 in Rain Heavy Rain
8:17 PM 59.0 °F 53.6 °F 82% 30.23 in 5.0 mi Calm Calm - 0.14 in Rain Light Rain
8:44 PM 59.0 °F 53.6 °F 82% 30.22 in 4.0 mi Variable 3.5 mph - 0.19 in Rain Rain
8:53 PM 59.0 °F 54.0 °F 83% 30.06 in 8.0 mi South 3.5 mph - 0.19 in Rain Light Rain
9:53 PM 57.0 °F 53.1 °F 87% 30.02 in 10.0 mi Calm Calm - 0.00 in   Scattered Clouds
10:44 PM 55.4 °F 51.8 °F 88% 30.20 in 4.0 mi Calm Calm - 0.01 in   Partly Cloudy
10:53 PM 55.9 °F 52.0 °F 87% 30.03 in 2.5 mi Calm Calm - 0.01 in   Mostly Cloudy
11:04 PM 55.4 °F 51.8 °F 88% 30.20 in 0.8 mi Calm Calm - N/A   Mist
11:53 PM 54.0 °F 50.0 °F 86% 30.02 in 0.2 mi South 3.5 mph - N/A Fog Fog